Location: Unspecified
(0.0000°N, 0.0000°E)
Time: 16:36:26
(UTC+00:00)

SKYMED 4 - Visible Passes

Search period start: 30 March 2017 00:00
Search period end: 09 April 2017 00:00
Orbit: 621 x 623 km, 97.9° (Epoch: 28 March)

Date Brightness Start Highest point End Pass type
(mag) Time Alt. Az. Time Alt. Az. Time Alt. Az.
30 Mar 5.3 05:36:59 10° SSE 05:41:19 79° ENE 05:45:38 10° N visible
01 Apr 8.7 04:40:26 10° E 04:41:23 11° ENE 04:42:19 10° ENE visible
01 Apr 8.1 18:22:47 10° NNW 18:26:11 23° WNW 18:29:36 10° SW visible
02 Apr 8.0 04:56:14 10° SE 04:59:21 19° ENE 05:02:26 10° NNE visible
02 Apr 8.6 18:42:14 10° NW 18:44:09 13° WNW 18:46:04 10° WSW visible
03 Apr 7.0 05:13:22 10° SE 05:17:19 34° ENE 05:21:14 10° NNE visible
04 Apr 5.7 05:30:58 10° SSE 05:35:17 64° ENE 05:39:33 10° N visible
07 Apr 8.3 04:50:38 10° ESE 04:53:17 16° ENE 04:55:55 10° NE visible
07 Apr 8.4 18:35:30 10° NW 18:38:05 16° WNW 18:40:41 10° WSW visible
08 Apr 7.4 05:07:31 10° SE 05:11:14 28° ENE 05:14:56 10° NNE visible
